Location: Linton
(52.0940°N, 0.2850°E)
Time: 22:22:57
(UTC+00:00)

ISS - Pass Details

Date: 15 November 2017
Orbit: 401 x 407 km, 51.6° (Epoch: 25 November)

Event Time Altitude Azimuth Distance (km) Brightness Sun altitude
Exits shadow 05:28:20 22° 213° (SSW) 926 -2.3 -16.8°
Maximum altitude 05:28:21 22° 213° (SSW) 926 -2.3 -16.8°
Drops below altitude 10° 05:30:57 10° 160° (SSE) 1,450 -0.6 -16.4°
Sets 05:33:17 0° 144° (SE) 2,305 0.7 -16.1°
